Kalamazoo Battle Creek International Airport Kalamazoo US
ICAO: KAZO
IATA: AZO
Category: Medium
Scheduled Services: Yes

Elevation: 874 ft
TransAlt. 18000 ft.

Airport Communications:
APP/DEP:119.2
ATIS:127.25
CLNC DEL:121.75
CTAF:118.3
GND:121.9
LANSING RDO:109
TWR:118.3
UNICOM:122.95

KAZO Zoom In..

Runways:

(A) RW 05 length 3439 ft width 100 ft
---- / hdg 48

(B) RW 09 length 2800 ft width 60 ft
---- / hdg 93

(C) RW 17 length 6502 ft width 150 ft
---- / hdg 174

(D) RW 23 length 3439 ft width 100 ft
---- / hdg 228

(E) RW 27 length 2800 ft width 60 ft
---- / hdg 273

(F) RW 35 length 6502 ft width 150 ft
ILS 110.90 / hdg 354

Location; KAZO
Day. 24 / Time. 12.53 Zulu
* Altimeter: 30.24
* Temperature: 19° c. 66.2°f.
* Wind from: 170° Speed 03 kn.
Dewpoint: 14° c.
Visibility: 10 Statute Miles.
Clouds: Clear (automated report).

KAZO 241253Z 17003KT 10SM CLR 19/14 A3024 RMK AO2 SLP239 T01940144


Wind From 170°
Speed 03 kn.

 
 
jpsmedia.com for Web Design SOUNDCLOUD worldairports.se 2018   terms of use